Index of /20260504/WXO-DD/model_rdps/10km/18/072
Name Last modified Size Description
Parent Directory -
20260504T18Z_MSC_RDPS_AbsoluteVorticity_IsbL-0250_RLatLon0.09_PT072H.grib2 2026-05-04 21:02 593K
20260504T18Z_MSC_RDPS_AbsoluteVorticity_IsbL-0500_RLatLon0.09_PT072H.grib2 2026-05-04 21:02 675K
20260504T18Z_MSC_RDPS_AbsoluteVorticity_IsbL-0700_RLatLon0.09_PT072H.grib2 2026-05-04 21:02 610K
20260504T18Z_MSC_RDPS_AbsoluteVorticity_IsbL-0850_RLatLon0.09_PT072H.grib2 2026-05-04 21:02 784K
20260504T18Z_MSC_RDPS_AirTemp_AGL-120m_RLatLon0.09_PT072H.grib2 2026-05-04 21:02 383K
20260504T18Z_MSC_RDPS_AirTemp_AGL-2m_RLatLon0.09_PT072H.grib2 2026-05-04 21:02 635K
20260504T18Z_MSC_RDPS_AirTemp_AGL-40m_RLatLon0.09_PT072H.grib2 2026-05-04 21:02 392K
20260504T18Z_MSC_RDPS_AirTemp_AGL-80m_RLatLon0.09_PT072H.grib2 2026-05-04 21:02 387K
20260504T18Z_MSC_RDPS_AirTemp_IsbL-0001_RLatLon0.09_PT072H.grib2 2026-05-04 21:02 328K
20260504T18Z_MSC_RDPS_AirTemp_IsbL-0005_RLatLon0.09_PT072H.grib2 2026-05-04 21:02 376K
20260504T18Z_MSC_RDPS_AirTemp_IsbL-0010_RLatLon0.09_PT072H.grib2 2026-05-04 21:02 392K
20260504T18Z_MSC_RDPS_AirTemp_IsbL-0020_RLatLon0.09_PT072H.grib2 2026-05-04 21:02 322K
20260504T18Z_MSC_RDPS_AirTemp_IsbL-0030_RLatLon0.09_PT072H.grib2 2026-05-04 21:02 340K
20260504T18Z_MSC_RDPS_AirTemp_IsbL-0050_RLatLon0.09_PT072H.grib2 2026-05-04 21:02 310K
20260504T18Z_MSC_RDPS_AirTemp_IsbL-0100_RLatLon0.09_PT072H.grib2 2026-05-04 21:02 417K
20260504T18Z_MSC_RDPS_AirTemp_IsbL-0150_RLatLon0.09_PT072H.grib2 2026-05-04 21:02 407K
20260504T18Z_MSC_RDPS_AirTemp_IsbL-0175_RLatLon0.09_PT072H.grib2 2026-05-04 21:02 402K
20260504T18Z_MSC_RDPS_AirTemp_IsbL-0200_RLatLon0.09_PT072H.grib2 2026-05-04 21:02 411K
20260504T18Z_MSC_RDPS_AirTemp_IsbL-0225_RLatLon0.09_PT072H.grib2 2026-05-04 21:02 413K
20260504T18Z_MSC_RDPS_AirTemp_IsbL-0250_RLatLon0.09_PT072H.grib2 2026-05-04 21:02 418K
20260504T18Z_MSC_RDPS_AirTemp_IsbL-0275_RLatLon0.09_PT072H.grib2 2026-05-04 21:02 398K
20260504T18Z_MSC_RDPS_AirTemp_IsbL-0300_RLatLon0.09_PT072H.grib2 2026-05-04 21:02 405K
20260504T18Z_MSC_RDPS_AirTemp_IsbL-0350_RLatLon0.09_PT072H.grib2 2026-05-04 21:02 418K
20260504T18Z_MSC_RDPS_AirTemp_IsbL-0400_RLatLon0.09_PT072H.grib2 2026-05-04 21:02 418K
20260504T18Z_MSC_RDPS_AirTemp_IsbL-0450_RLatLon0.09_PT072H.grib2 2026-05-04 21:02 425K
20260504T18Z_MSC_RDPS_AirTemp_IsbL-0500_RLatLon0.09_PT072H.grib2 2026-05-04 21:02 436K
20260504T18Z_MSC_RDPS_AirTemp_IsbL-0550_RLatLon0.09_PT072H.grib2 2026-05-04 21:02 418K
20260504T18Z_MSC_RDPS_AirTemp_IsbL-0600_RLatLon0.09_PT072H.grib2 2026-05-04 21:02 436K
20260504T18Z_MSC_RDPS_AirTemp_IsbL-0650_RLatLon0.09_PT072H.grib2 2026-05-04 21:02 452K
20260504T18Z_MSC_RDPS_AirTemp_IsbL-0700_RLatLon0.09_PT072H.grib2 2026-05-04 21:02 480K
20260504T18Z_MSC_RDPS_AirTemp_IsbL-0750_RLatLon0.09_PT072H.grib2 2026-05-04 21:02 524K
20260504T18Z_MSC_RDPS_AirTemp_IsbL-0800_RLatLon0.09_PT072H.grib2 2026-05-04 21:02 577K
20260504T18Z_MSC_RDPS_AirTemp_IsbL-0850_RLatLon0.09_PT072H.grib2 2026-05-04 21:02 510K
20260504T18Z_MSC_RDPS_AirTemp_IsbL-0875_RLatLon0.09_PT072H.grib2 2026-05-04 21:02 529K
20260504T18Z_MSC_RDPS_AirTemp_IsbL-0900_RLatLon0.09_PT072H.grib2 2026-05-04 21:02 540K
20260504T18Z_MSC_RDPS_AirTemp_IsbL-0925_RLatLon0.09_PT072H.grib2 2026-05-04 21:02 542K
20260504T18Z_MSC_RDPS_AirTemp_IsbL-0950_RLatLon0.09_PT072H.grib2 2026-05-04 21:02 541K
20260504T18Z_MSC_RDPS_AirTemp_IsbL-0970_RLatLon0.09_PT072H.grib2 2026-05-04 21:02 537K
20260504T18Z_MSC_RDPS_AirTemp_IsbL-0985_RLatLon0.09_PT072H.grib2 2026-05-04 21:02 526K
20260504T18Z_MSC_RDPS_AirTemp_IsbL-1000_RLatLon0.09_PT072H.grib2 2026-05-04 21:02 508K
20260504T18Z_MSC_RDPS_AirTemp_IsbL-1015_RLatLon0.09_PT072H.grib2 2026-05-04 21:02 508K
20260504T18Z_MSC_RDPS_Albedo_Sfc_RLatLon0.09_PT072H.grib2 2026-05-04 21:02 156K
20260504T18Z_MSC_RDPS_CAPE_Sfc_RLatLon0.09_PT072H.grib2 2026-05-04 21:02 1.9M
20260504T18Z_MSC_RDPS_CIN_Sfc_RLatLon0.09_PT072H.grib2 2026-05-04 21:02 1.2M
20260504T18Z_MSC_RDPS_CloudWater_EAtm_RLatLon0.09_PT072H.grib2 2026-05-04 21:02 225K
20260504T18Z_MSC_RDPS_ConvectivePrecip-Accum_Sfc_RLatLon0.09_PT072H.grib2 2026-05-04 21:02 1.1M
20260504T18Z_MSC_RDPS_DewPointDepression_AGL-2m_RLatLon0.09_PT072H.grib2 2026-05-04 21:02 430K
20260504T18Z_MSC_RDPS_DewPointDepression_IsbL-0001_RLatLon0.09_PT072H.grib2 2026-05-04 21:02 193
20260504T18Z_MSC_RDPS_DewPointDepression_IsbL-0005_RLatLon0.09_PT072H.grib2 2026-05-04 21:02 193
20260504T18Z_MSC_RDPS_DewPointDepression_IsbL-0010_RLatLon0.09_PT072H.grib2 2026-05-04 21:02 193
20260504T18Z_MSC_RDPS_DewPointDepression_IsbL-0020_RLatLon0.09_PT072H.grib2 2026-05-04 21:02 193
20260504T18Z_MSC_RDPS_DewPointDepression_IsbL-0030_RLatLon0.09_PT072H.grib2 2026-05-04 21:02 193
20260504T18Z_MSC_RDPS_DewPointDepression_IsbL-0050_RLatLon0.09_PT072H.grib2 2026-05-04 21:02 110K
20260504T18Z_MSC_RDPS_DewPointDepression_IsbL-0100_RLatLon0.09_PT072H.grib2 2026-05-04 21:02 110K
20260504T18Z_MSC_RDPS_DewPointDepression_IsbL-0150_RLatLon0.09_PT072H.grib2 2026-05-04 21:02 139K
20260504T18Z_MSC_RDPS_DewPointDepression_IsbL-0175_RLatLon0.09_PT072H.grib2 2026-05-04 21:02 180K
20260504T18Z_MSC_RDPS_DewPointDepression_IsbL-0200_RLatLon0.09_PT072H.grib2 2026-05-04 21:02 223K
20260504T18Z_MSC_RDPS_DewPointDepression_IsbL-0225_RLatLon0.09_PT072H.grib2 2026-05-04 21:02 253K
20260504T18Z_MSC_RDPS_DewPointDepression_IsbL-0250_RLatLon0.09_PT072H.grib2 2026-05-04 21:02 300K
20260504T18Z_MSC_RDPS_DewPointDepression_IsbL-0275_RLatLon0.09_PT072H.grib2 2026-05-04 21:02 308K
20260504T18Z_MSC_RDPS_DewPointDepression_IsbL-0300_RLatLon0.09_PT072H.grib2 2026-05-04 21:02 324K
20260504T18Z_MSC_RDPS_DewPointDepression_IsbL-0350_RLatLon0.09_PT072H.grib2 2026-05-04 21:02 329K
20260504T18Z_MSC_RDPS_DewPointDepression_IsbL-0400_RLatLon0.09_PT072H.grib2 2026-05-04 21:02 337K
20260504T18Z_MSC_RDPS_DewPointDepression_IsbL-0450_RLatLon0.09_PT072H.grib2 2026-05-04 21:02 342K
20260504T18Z_MSC_RDPS_DewPointDepression_IsbL-0500_RLatLon0.09_PT072H.grib2 2026-05-04 21:02 347K
20260504T18Z_MSC_RDPS_DewPointDepression_IsbL-0550_RLatLon0.09_PT072H.grib2 2026-05-04 21:02 356K
20260504T18Z_MSC_RDPS_DewPointDepression_IsbL-0600_RLatLon0.09_PT072H.grib2 2026-05-04 21:02 367K
20260504T18Z_MSC_RDPS_DewPointDepression_IsbL-0650_RLatLon0.09_PT072H.grib2 2026-05-04 21:02 370K
20260504T18Z_MSC_RDPS_DewPointDepression_IsbL-0700_RLatLon0.09_PT072H.grib2 2026-05-04 21:02 384K
20260504T18Z_MSC_RDPS_DewPointDepression_IsbL-0750_RLatLon0.09_PT072H.grib2 2026-05-04 21:02 414K
20260504T18Z_MSC_RDPS_DewPointDepression_IsbL-0800_RLatLon0.09_PT072H.grib2 2026-05-04 21:02 456K
20260504T18Z_MSC_RDPS_DewPointDepression_IsbL-0850_RLatLon0.09_PT072H.grib2 2026-05-04 21:02 493K
20260504T18Z_MSC_RDPS_DewPointDepression_IsbL-0875_RLatLon0.09_PT072H.grib2 2026-05-04 21:02 491K
20260504T18Z_MSC_RDPS_DewPointDepression_IsbL-0900_RLatLon0.09_PT072H.grib2 2026-05-04 21:02 483K
20260504T18Z_MSC_RDPS_DewPointDepression_IsbL-0925_RLatLon0.09_PT072H.grib2 2026-05-04 21:02 468K
20260504T18Z_MSC_RDPS_DewPointDepression_IsbL-0950_RLatLon0.09_PT072H.grib2 2026-05-04 21:02 457K
20260504T18Z_MSC_RDPS_DewPointDepression_IsbL-0970_RLatLon0.09_PT072H.grib2 2026-05-04 21:02 449K
20260504T18Z_MSC_RDPS_DewPointDepression_IsbL-0985_RLatLon0.09_PT072H.grib2 2026-05-04 21:02 446K
20260504T18Z_MSC_RDPS_DewPointDepression_IsbL-1000_RLatLon0.09_PT072H.grib2 2026-05-04 21:02 442K
20260504T18Z_MSC_RDPS_DewPointDepression_IsbL-1015_RLatLon0.09_PT072H.grib2 2026-05-04 21:02 433K
20260504T18Z_MSC_RDPS_DewPoint_AGL-2m_RLatLon0.09_PT072H.grib2 2026-05-04 21:02 408K
20260504T18Z_MSC_RDPS_DownwardLongwaveRadiationFlux-Accum_Sfc_RLatLon0.09_PT072H.grib2 2026-05-04 21:02 428K
20260504T18Z_MSC_RDPS_DownwardShortwaveRadiationFlux-Accum_NTAtm_RLatLon0.09_PT072H.grib2 2026-05-04 21:02 133K
20260504T18Z_MSC_RDPS_DownwardShortwaveRadiationFlux-Accum_Sfc_RLatLon0.09_PT072H.grib2 2026-05-04 21:02 635K
20260504T18Z_MSC_RDPS_FreezingRain-Accum12h_Sfc_RLatLon0.09_PT072H.grib2 2026-05-04 21:02 97K
20260504T18Z_MSC_RDPS_FreezingRain-Accum1h_Sfc_RLatLon0.09_PT072H.grib2 2026-05-04 21:02 27K
20260504T18Z_MSC_RDPS_FreezingRain-Accum24h_Sfc_RLatLon0.09_PT072H.grib2 2026-05-04 21:02 127K
20260504T18Z_MSC_RDPS_FreezingRain-Accum3h_Sfc_RLatLon0.09_PT072H.grib2 2026-05-04 21:02 40K
20260504T18Z_MSC_RDPS_FreezingRain-Accum6h_Sfc_RLatLon0.09_PT072H.grib2 2026-05-04 21:02 60K
20260504T18Z_MSC_RDPS_FreezingRain-Accum_Sfc_RLatLon0.09_PT072H.grib2 2026-05-04 21:02 212K
20260504T18Z_MSC_RDPS_GeopotentialHeight_IsbL-0001_RLatLon0.09_PT072H.grib2 2026-05-04 21:02 325K
20260504T18Z_MSC_RDPS_GeopotentialHeight_IsbL-0005_RLatLon0.09_PT072H.grib2 2026-05-04 21:02 309K
20260504T18Z_MSC_RDPS_GeopotentialHeight_IsbL-0010_RLatLon0.09_PT072H.grib2 2026-05-04 21:02 309K
20260504T18Z_MSC_RDPS_GeopotentialHeight_IsbL-0020_RLatLon0.09_PT072H.grib2 2026-05-04 21:02 309K
20260504T18Z_MSC_RDPS_GeopotentialHeight_IsbL-0030_RLatLon0.09_PT072H.grib2 2026-05-04 21:02 311K
20260504T18Z_MSC_RDPS_GeopotentialHeight_IsbL-0050_RLatLon0.09_PT072H.grib2 2026-05-04 21:02 310K
20260504T18Z_MSC_RDPS_GeopotentialHeight_IsbL-0100_RLatLon0.09_PT072H.grib2 2026-05-04 21:02 285K
20260504T18Z_MSC_RDPS_GeopotentialHeight_IsbL-0150_RLatLon0.09_PT072H.grib2 2026-05-04 21:02 228K
20260504T18Z_MSC_RDPS_GeopotentialHeight_IsbL-0175_RLatLon0.09_PT072H.grib2 2026-05-04 21:02 231K
20260504T18Z_MSC_RDPS_GeopotentialHeight_IsbL-0200_RLatLon0.09_PT072H.grib2 2026-05-04 21:02 235K
20260504T18Z_MSC_RDPS_GeopotentialHeight_IsbL-0225_RLatLon0.09_PT072H.grib2 2026-05-04 21:02 267K
20260504T18Z_MSC_RDPS_GeopotentialHeight_IsbL-0250_RLatLon0.09_PT072H.grib2 2026-05-04 21:02 267K
20260504T18Z_MSC_RDPS_GeopotentialHeight_IsbL-0275_RLatLon0.09_PT072H.grib2 2026-05-04 21:02 236K
20260504T18Z_MSC_RDPS_GeopotentialHeight_IsbL-0300_RLatLon0.09_PT072H.grib2 2026-05-04 21:02 236K
20260504T18Z_MSC_RDPS_GeopotentialHeight_IsbL-0350_RLatLon0.09_PT072H.grib2 2026-05-04 21:02 232K
20260504T18Z_MSC_RDPS_GeopotentialHeight_IsbL-0400_RLatLon0.09_PT072H.grib2 2026-05-04 21:02 228K
20260504T18Z_MSC_RDPS_GeopotentialHeight_IsbL-0450_RLatLon0.09_PT072H.grib2 2026-05-04 21:02 295K
20260504T18Z_MSC_RDPS_GeopotentialHeight_IsbL-0500_RLatLon0.09_PT072H.grib2 2026-05-04 21:02 289K
20260504T18Z_MSC_RDPS_GeopotentialHeight_IsbL-0550_RLatLon0.09_PT072H.grib2 2026-05-04 21:02 285K
20260504T18Z_MSC_RDPS_GeopotentialHeight_IsbL-0600_RLatLon0.09_PT072H.grib2 2026-05-04 21:02 281K
20260504T18Z_MSC_RDPS_GeopotentialHeight_IsbL-0650_RLatLon0.09_PT072H.grib2 2026-05-04 21:02 254K
20260504T18Z_MSC_RDPS_GeopotentialHeight_IsbL-0700_RLatLon0.09_PT072H.grib2 2026-05-04 21:02 335K
20260504T18Z_MSC_RDPS_GeopotentialHeight_IsbL-0750_RLatLon0.09_PT072H.grib2 2026-05-04 21:02 338K
20260504T18Z_MSC_RDPS_GeopotentialHeight_IsbL-0800_RLatLon0.09_PT072H.grib2 2026-05-04 21:02 379K
20260504T18Z_MSC_RDPS_GeopotentialHeight_IsbL-0850_RLatLon0.09_PT072H.grib2 2026-05-04 21:02 388K
20260504T18Z_MSC_RDPS_GeopotentialHeight_IsbL-0875_RLatLon0.09_PT072H.grib2 2026-05-04 21:02 392K
20260504T18Z_MSC_RDPS_GeopotentialHeight_IsbL-0900_RLatLon0.09_PT072H.grib2 2026-05-04 21:02 370K
20260504T18Z_MSC_RDPS_GeopotentialHeight_IsbL-0925_RLatLon0.09_PT072H.grib2 2026-05-04 21:02 374K
20260504T18Z_MSC_RDPS_GeopotentialHeight_IsbL-0950_RLatLon0.09_PT072H.grib2 2026-05-04 21:02 377K
20260504T18Z_MSC_RDPS_GeopotentialHeight_IsbL-0970_RLatLon0.09_PT072H.grib2 2026-05-04 21:02 384K
20260504T18Z_MSC_RDPS_GeopotentialHeight_IsbL-0985_RLatLon0.09_PT072H.grib2 2026-05-04 21:02 395K
20260504T18Z_MSC_RDPS_GeopotentialHeight_IsbL-1000_RLatLon0.09_PT072H.grib2 2026-05-04 21:02 411K
20260504T18Z_MSC_RDPS_GeopotentialHeight_IsbL-1015_RLatLon0.09_PT072H.grib2 2026-05-04 21:02 430K
20260504T18Z_MSC_RDPS_Humidex_Sfc_RLatLon0.09_PT072H.grib2 2026-05-04 21:02 2.4M
20260504T18Z_MSC_RDPS_IcePellets-Accum12h_Sfc_RLatLon0.09_PT072H.grib2 2026-05-04 21:02 11K
20260504T18Z_MSC_RDPS_IcePellets-Accum1h_Sfc_RLatLon0.09_PT072H.grib2 2026-05-04 21:02 6.2K
20260504T18Z_MSC_RDPS_IcePellets-Accum24h_Sfc_RLatLon0.09_PT072H.grib2 2026-05-04 21:02 17K
20260504T18Z_MSC_RDPS_IcePellets-Accum3h_Sfc_RLatLon0.09_PT072H.grib2 2026-05-04 21:02 7.1K
20260504T18Z_MSC_RDPS_IcePellets-Accum6h_Sfc_RLatLon0.09_PT072H.grib2 2026-05-04 21:02 9.8K
20260504T18Z_MSC_RDPS_IcePellets-Accum_Sfc_RLatLon0.09_PT072H.grib2 2026-05-04 21:02 46K
20260504T18Z_MSC_RDPS_KIndex_Sfc_RLatLon0.09_PT072H.grib2 2026-05-04 21:02 2.5M
20260504T18Z_MSC_RDPS_LatentHeatNetFlux_Sfc_RLatLon0.09_PT072H.grib2 2026-05-04 21:02 313K
20260504T18Z_MSC_RDPS_LiftedIndex-MU-VT_IsbL-0500_RLatLon0.09_PT072H.grib2 2026-05-04 21:02 2.4M
20260504T18Z_MSC_RDPS_NetLongwaveRadiationFlux-Accum_Sfc_RLatLon0.09_PT072H.grib2 2026-05-04 21:02 611K
20260504T18Z_MSC_RDPS_NetShortwaveRadiationFlux-Accum_Sfc_RLatLon0.09_PT072H.grib2 2026-05-04 21:02 632K
20260504T18Z_MSC_RDPS_PlanetaryBoundaryLayerHeight_Sfc_RLatLon0.09_PT072H.grib2 2026-05-04 21:02 1.0M
20260504T18Z_MSC_RDPS_Precip-Accum12h_Sfc_RLatLon0.09_PT072H.grib2 2026-05-04 21:02 1.6M
20260504T18Z_MSC_RDPS_Precip-Accum1h_Sfc_RLatLon0.09_PT072H.grib2 2026-05-04 21:02 1.3M
20260504T18Z_MSC_RDPS_Precip-Accum24h_Sfc_RLatLon0.09_PT072H.grib2 2026-05-04 21:02 1.8M
20260504T18Z_MSC_RDPS_Precip-Accum3h_Sfc_RLatLon0.09_PT072H.grib2 2026-05-04 21:02 1.4M
20260504T18Z_MSC_RDPS_Precip-Accum6h_Sfc_RLatLon0.09_PT072H.grib2 2026-05-04 21:02 1.6M
20260504T18Z_MSC_RDPS_Precip-Accum_Sfc_RLatLon0.09_PT072H.grib2 2026-05-04 21:02 2.2M
20260504T18Z_MSC_RDPS_PrecipRate_Sfc_RLatLon0.09_PT072H.grib2 2026-05-04 21:02 194K
20260504T18Z_MSC_RDPS_PrecipType-Instant_Sfc_RLatLon0.09_PT072H.grib2 2026-05-04 21:02 600K
20260504T18Z_MSC_RDPS_Pressure-Trend3h_Sfc_RLatLon0.09_PT072H.grib2 2026-05-04 21:02 1.2M
20260504T18Z_MSC_RDPS_Pressure_MSL_RLatLon0.09_PT072H.grib2 2026-05-04 21:02 394K
20260504T18Z_MSC_RDPS_Pressure_PVU-1.5_RLatLon0.09_PT072H.grib2 2026-05-04 21:02 2.5M
20260504T18Z_MSC_RDPS_Pressure_PVU-1_RLatLon0.09_PT072H.grib2 2026-05-04 21:02 2.4M
20260504T18Z_MSC_RDPS_Pressure_PVU-2_RLatLon0.09_PT072H.grib2 2026-05-04 21:02 2.4M
20260504T18Z_MSC_RDPS_Pressure_Sfc_RLatLon0.09_PT072H.grib2 2026-05-04 21:02 498K
20260504T18Z_MSC_RDPS_RadiativeTemp_Sfc_RLatLon0.09_PT072H.grib2 2026-05-04 21:02 331K
20260504T18Z_MSC_RDPS_Rain-Accum12h_Sfc_RLatLon0.09_PT072H.grib2 2026-05-04 21:02 1.1M
20260504T18Z_MSC_RDPS_Rain-Accum1h_Sfc_RLatLon0.09_PT072H.grib2 2026-05-04 21:02 642K
20260504T18Z_MSC_RDPS_Rain-Accum24h_Sfc_RLatLon0.09_PT072H.grib2 2026-05-04 21:02 1.3M
20260504T18Z_MSC_RDPS_Rain-Accum3h_Sfc_RLatLon0.09_PT072H.grib2 2026-05-04 21:02 735K
20260504T18Z_MSC_RDPS_Rain-Accum6h_Sfc_RLatLon0.09_PT072H.grib2 2026-05-04 21:02 1.0M
20260504T18Z_MSC_RDPS_Rain-Accum_Sfc_RLatLon0.09_PT072H.grib2 2026-05-04 21:02 1.8M
20260504T18Z_MSC_RDPS_RelativeHumidity_AGL-2m_RLatLon0.09_PT072H.grib2 2026-05-04 21:02 1.0M
20260504T18Z_MSC_RDPS_RelativeHumidity_IsbL-0010_RLatLon0.09_PT072H.grib2 2026-05-04 21:02 690K
20260504T18Z_MSC_RDPS_RelativeHumidity_IsbL-0020_RLatLon0.09_PT072H.grib2 2026-05-04 21:02 646K
20260504T18Z_MSC_RDPS_RelativeHumidity_IsbL-0030_RLatLon0.09_PT072H.grib2 2026-05-04 21:02 601K
20260504T18Z_MSC_RDPS_RelativeHumidity_IsbL-0050_RLatLon0.09_PT072H.grib2 2026-05-04 21:02 353K
20260504T18Z_MSC_RDPS_RelativeHumidity_IsbL-0100_RLatLon0.09_PT072H.grib2 2026-05-04 21:02 274K
20260504T18Z_MSC_RDPS_RelativeHumidity_IsbL-0150_RLatLon0.09_PT072H.grib2 2026-05-04 21:02 405K
20260504T18Z_MSC_RDPS_RelativeHumidity_IsbL-0175_RLatLon0.09_PT072H.grib2 2026-05-04 21:02 465K
20260504T18Z_MSC_RDPS_RelativeHumidity_IsbL-0200_RLatLon0.09_PT072H.grib2 2026-05-04 21:02 549K
20260504T18Z_MSC_RDPS_RelativeHumidity_IsbL-0225_RLatLon0.09_PT072H.grib2 2026-05-04 21:02 608K
20260504T18Z_MSC_RDPS_RelativeHumidity_IsbL-0250_RLatLon0.09_PT072H.grib2 2026-05-04 21:02 669K
20260504T18Z_MSC_RDPS_RelativeHumidity_IsbL-0275_RLatLon0.09_PT072H.grib2 2026-05-04 21:02 698K
20260504T18Z_MSC_RDPS_RelativeHumidity_IsbL-0300_RLatLon0.09_PT072H.grib2 2026-05-04 21:02 742K
20260504T18Z_MSC_RDPS_RelativeHumidity_IsbL-0350_RLatLon0.09_PT072H.grib2 2026-05-04 21:02 766K
20260504T18Z_MSC_RDPS_RelativeHumidity_IsbL-0400_RLatLon0.09_PT072H.grib2 2026-05-04 21:02 782K
20260504T18Z_MSC_RDPS_RelativeHumidity_IsbL-0450_RLatLon0.09_PT072H.grib2 2026-05-04 21:02 790K
20260504T18Z_MSC_RDPS_RelativeHumidity_IsbL-0500_RLatLon0.09_PT072H.grib2 2026-05-04 21:02 794K
20260504T18Z_MSC_RDPS_RelativeHumidity_IsbL-0550_RLatLon0.09_PT072H.grib2 2026-05-04 21:02 810K
20260504T18Z_MSC_RDPS_RelativeHumidity_IsbL-0600_RLatLon0.09_PT072H.grib2 2026-05-04 21:02 829K
20260504T18Z_MSC_RDPS_RelativeHumidity_IsbL-0650_RLatLon0.09_PT072H.grib2 2026-05-04 21:02 846K
20260504T18Z_MSC_RDPS_RelativeHumidity_IsbL-0700_RLatLon0.09_PT072H.grib2 2026-05-04 21:02 863K
20260504T18Z_MSC_RDPS_RelativeHumidity_IsbL-0750_RLatLon0.09_PT072H.grib2 2026-05-04 21:02 921K
20260504T18Z_MSC_RDPS_RelativeHumidity_IsbL-0800_RLatLon0.09_PT072H.grib2 2026-05-04 21:02 1.0M
20260504T18Z_MSC_RDPS_RelativeHumidity_IsbL-0850_RLatLon0.09_PT072H.grib2 2026-05-04 21:02 1.1M
20260504T18Z_MSC_RDPS_RelativeHumidity_IsbL-0875_RLatLon0.09_PT072H.grib2 2026-05-04 21:02 1.1M
20260504T18Z_MSC_RDPS_RelativeHumidity_IsbL-0900_RLatLon0.09_PT072H.grib2 2026-05-04 21:02 1.1M
20260504T18Z_MSC_RDPS_RelativeHumidity_IsbL-0925_RLatLon0.09_PT072H.grib2 2026-05-04 21:02 1.1M
20260504T18Z_MSC_RDPS_RelativeHumidity_IsbL-0950_RLatLon0.09_PT072H.grib2 2026-05-04 21:02 1.1M
20260504T18Z_MSC_RDPS_RelativeHumidity_IsbL-0970_RLatLon0.09_PT072H.grib2 2026-05-04 21:02 1.1M
20260504T18Z_MSC_RDPS_RelativeHumidity_IsbL-0985_RLatLon0.09_PT072H.grib2 2026-05-04 21:02 1.1M
20260504T18Z_MSC_RDPS_RelativeHumidity_IsbL-1000_RLatLon0.09_PT072H.grib2 2026-05-04 21:02 1.0M
20260504T18Z_MSC_RDPS_RelativeHumidity_IsbL-1015_RLatLon0.09_PT072H.grib2 2026-05-04 21:02 1.0M
20260504T18Z_MSC_RDPS_Runoff-Accum_Sfc_RLatLon0.09_PT072H.grib2 2026-05-04 21:02 68K
20260504T18Z_MSC_RDPS_SWEATIndex_Sfc_RLatLon0.09_PT072H.grib2 2026-05-04 21:02 2.4M
20260504T18Z_MSC_RDPS_SeeingIndex_EAtm_RLatLon0.09_PT072H.grib2 2026-05-04 21:02 1.0M
20260504T18Z_MSC_RDPS_SensibleHeatNetFlux_Sfc_RLatLon0.09_PT072H.grib2 2026-05-04 21:02 280K
20260504T18Z_MSC_RDPS_ShowalterIndex_IsbL-0500_RLatLon0.09_PT072H.grib2 2026-05-04 21:02 2.6M
20260504T18Z_MSC_RDPS_SkyTransparencyIndex_EAtm_RLatLon0.09_PT072H.grib2 2026-05-04 21:02 736K
20260504T18Z_MSC_RDPS_Snow-Accum12h_Sfc_RLatLon0.09_PT072H.grib2 2026-05-04 21:02 612K
20260504T18Z_MSC_RDPS_Snow-Accum1h_Sfc_RLatLon0.09_PT072H.grib2 2026-05-04 21:02 511K
20260504T18Z_MSC_RDPS_Snow-Accum24h_Sfc_RLatLon0.09_PT072H.grib2 2026-05-04 21:02 638K
20260504T18Z_MSC_RDPS_Snow-Accum3h_Sfc_RLatLon0.09_PT072H.grib2 2026-05-04 21:02 473K
20260504T18Z_MSC_RDPS_Snow-Accum6h_Sfc_RLatLon0.09_PT072H.grib2 2026-05-04 21:02 589K
20260504T18Z_MSC_RDPS_Snow-Accum_Sfc_RLatLon0.09_PT072H.grib2 2026-05-04 21:02 789K
20260504T18Z_MSC_RDPS_SnowDensity_Sfc_RLatLon0.09_PT072H.grib2 2026-05-04 21:02 178K
20260504T18Z_MSC_RDPS_SnowDepth_Sfc_RLatLon0.09_PT072H.grib2 2026-05-04 21:02 649K
20260504T18Z_MSC_RDPS_SoilTemp_DBS-0to10cm_RLatLon0.09_PT072H.grib2 2026-05-04 21:02 246K
20260504T18Z_MSC_RDPS_SoilTemp_Sfc_RLatLon0.09_PT072H.grib2 2026-05-04 21:02 296K
20260504T18Z_MSC_RDPS_SoilVolumetricIceContent_Sfc_RLatLon0.09_PT072H.grib2 2026-05-04 21:02 149K
20260504T18Z_MSC_RDPS_SoilVolumetricWaterContent_DBS-0to10cm_RLatLon0.09_PT072H.grib2 2026-05-04 21:02 284K
20260504T18Z_MSC_RDPS_SoilVolumetricWaterContent_DBS-0to1cm_RLatLon0.09_PT072H.grib2 2026-05-04 21:02 345K
20260504T18Z_MSC_RDPS_SpecificHumidity_AGL-120m_RLatLon0.09_PT072H.grib2 2026-05-04 21:02 514K
20260504T18Z_MSC_RDPS_SpecificHumidity_AGL-2m_RLatLon0.09_PT072H.grib2 2026-05-04 21:02 683K
20260504T18Z_MSC_RDPS_SpecificHumidity_AGL-40m_RLatLon0.09_PT072H.grib2 2026-05-04 21:02 518K
20260504T18Z_MSC_RDPS_SpecificHumidity_AGL-80m_RLatLon0.09_PT072H.grib2 2026-05-04 21:02 515K
20260504T18Z_MSC_RDPS_SpecificHumidity_IsbL-0001_RLatLon0.09_PT072H.grib2 2026-05-04 21:02 377K
20260504T18Z_MSC_RDPS_SpecificHumidity_IsbL-0005_RLatLon0.09_PT072H.grib2 2026-05-04 21:02 366K
20260504T18Z_MSC_RDPS_SpecificHumidity_IsbL-0010_RLatLon0.09_PT072H.grib2 2026-05-04 21:02 401K
20260504T18Z_MSC_RDPS_SpecificHumidity_IsbL-0020_RLatLon0.09_PT072H.grib2 2026-05-04 21:02 485K
20260504T18Z_MSC_RDPS_SpecificHumidity_IsbL-0030_RLatLon0.09_PT072H.grib2 2026-05-04 21:02 359K
20260504T18Z_MSC_RDPS_SpecificHumidity_IsbL-0050_RLatLon0.09_PT072H.grib2 2026-05-04 21:02 468K
20260504T18Z_MSC_RDPS_SpecificHumidity_IsbL-0100_RLatLon0.09_PT072H.grib2 2026-05-04 21:02 411K
20260504T18Z_MSC_RDPS_SpecificHumidity_IsbL-0150_RLatLon0.09_PT072H.grib2 2026-05-04 21:02 448K
20260504T18Z_MSC_RDPS_SpecificHumidity_IsbL-0175_RLatLon0.09_PT072H.grib2 2026-05-04 21:02 436K
20260504T18Z_MSC_RDPS_SpecificHumidity_IsbL-0200_RLatLon0.09_PT072H.grib2 2026-05-04 21:02 471K
20260504T18Z_MSC_RDPS_SpecificHumidity_IsbL-0225_RLatLon0.09_PT072H.grib2 2026-05-04 21:02 449K
20260504T18Z_MSC_RDPS_SpecificHumidity_IsbL-0250_RLatLon0.09_PT072H.grib2 2026-05-04 21:02 548K
20260504T18Z_MSC_RDPS_SpecificHumidity_IsbL-0275_RLatLon0.09_PT072H.grib2 2026-05-04 21:02 467K
20260504T18Z_MSC_RDPS_SpecificHumidity_IsbL-0300_RLatLon0.09_PT072H.grib2 2026-05-04 21:02 537K
20260504T18Z_MSC_RDPS_SpecificHumidity_IsbL-0350_RLatLon0.09_PT072H.grib2 2026-05-04 21:02 532K
20260504T18Z_MSC_RDPS_SpecificHumidity_IsbL-0400_RLatLon0.09_PT072H.grib2 2026-05-04 21:02 514K
20260504T18Z_MSC_RDPS_SpecificHumidity_IsbL-0450_RLatLon0.09_PT072H.grib2 2026-05-04 21:02 568K
20260504T18Z_MSC_RDPS_SpecificHumidity_IsbL-0500_RLatLon0.09_PT072H.grib2 2026-05-04 21:02 502K
20260504T18Z_MSC_RDPS_SpecificHumidity_IsbL-0550_RLatLon0.09_PT072H.grib2 2026-05-04 21:02 573K
20260504T18Z_MSC_RDPS_SpecificHumidity_IsbL-0600_RLatLon0.09_PT072H.grib2 2026-05-04 21:02 627K
20260504T18Z_MSC_RDPS_SpecificHumidity_IsbL-0650_RLatLon0.09_PT072H.grib2 2026-05-04 21:02 541K
20260504T18Z_MSC_RDPS_SpecificHumidity_IsbL-0700_RLatLon0.09_PT072H.grib2 2026-05-04 21:02 587K
20260504T18Z_MSC_RDPS_SpecificHumidity_IsbL-0750_RLatLon0.09_PT072H.grib2 2026-05-04 21:02 667K
20260504T18Z_MSC_RDPS_SpecificHumidity_IsbL-0800_RLatLon0.09_PT072H.grib2 2026-05-04 21:02 753K
20260504T18Z_MSC_RDPS_SpecificHumidity_IsbL-0850_RLatLon0.09_PT072H.grib2 2026-05-04 21:02 834K
20260504T18Z_MSC_RDPS_SpecificHumidity_IsbL-0875_RLatLon0.09_PT072H.grib2 2026-05-04 21:02 858K
20260504T18Z_MSC_RDPS_SpecificHumidity_IsbL-0900_RLatLon0.09_PT072H.grib2 2026-05-04 21:02 730K
20260504T18Z_MSC_RDPS_SpecificHumidity_IsbL-0925_RLatLon0.09_PT072H.grib2 2026-05-04 21:02 732K
20260504T18Z_MSC_RDPS_SpecificHumidity_IsbL-0950_RLatLon0.09_PT072H.grib2 2026-05-04 21:02 730K
20260504T18Z_MSC_RDPS_SpecificHumidity_IsbL-0970_RLatLon0.09_PT072H.grib2 2026-05-04 21:02 720K
20260504T18Z_MSC_RDPS_SpecificHumidity_IsbL-0985_RLatLon0.09_PT072H.grib2 2026-05-04 21:02 715K
20260504T18Z_MSC_RDPS_SpecificHumidity_IsbL-1000_RLatLon0.09_PT072H.grib2 2026-05-04 21:02 709K
20260504T18Z_MSC_RDPS_SpecificHumidity_IsbL-1015_RLatLon0.09_PT072H.grib2 2026-05-04 21:02 698K
20260504T18Z_MSC_RDPS_SpecificHumidity_Sfc_RLatLon0.09_PT072H.grib2 2026-05-04 21:02 354K
20260504T18Z_MSC_RDPS_StormRelativeHelicity_EtaL-10000_RLatLon0.09_PT072H.grib2 2026-05-04 21:02 1.1M
20260504T18Z_MSC_RDPS_StormSeverityIndex_EtaL-10000_RLatLon0.09_PT072H.grib2 2026-05-04 21:02 1.2M
20260504T18Z_MSC_RDPS_Thickness_IsbL-0850to0700_RLatLon0.09_PT072H.grib2 2026-05-04 21:02 174K
20260504T18Z_MSC_RDPS_Thickness_IsbL-1000to0500_RLatLon0.09_PT072H.grib2 2026-05-04 21:02 194K
20260504T18Z_MSC_RDPS_Thickness_IsbL-1000to0850_RLatLon0.09_PT072H.grib2 2026-05-04 21:02 188K
20260504T18Z_MSC_RDPS_TotalCloudCover_Sfc_RLatLon0.09_PT072H.grib2 2026-05-04 21:02 665K
20260504T18Z_MSC_RDPS_TotalTotalsIndex_Sfc_RLatLon0.09_PT072H.grib2 2026-05-04 21:02 2.4M
20260504T18Z_MSC_RDPS_UVIndex-ClearSky_Sfc_RLatLon0.09_PT072H.grib2 2026-05-04 21:02 233K
20260504T18Z_MSC_RDPS_UVIndex_Sfc_RLatLon0.09_PT072H.grib2 2026-05-04 21:02 549K
20260504T18Z_MSC_RDPS_UpwardLongwaveRadiationFlux_NTAtm_RLatLon0.09_PT072H.grib2 2026-05-04 21:02 382K
20260504T18Z_MSC_RDPS_UpwardShortwaveRadiationFlux_NTAtm_RLatLon0.09_PT072H.grib2 2026-05-04 21:02 581K
20260504T18Z_MSC_RDPS_VerticalVelocity_IsbL-0250_RLatLon0.09_PT072H.grib2 2026-05-04 21:02 717K
20260504T18Z_MSC_RDPS_VerticalVelocity_IsbL-0500_RLatLon0.09_PT072H.grib2 2026-05-04 21:02 672K
20260504T18Z_MSC_RDPS_VerticalVelocity_IsbL-0700_RLatLon0.09_PT072H.grib2 2026-05-04 21:02 588K
20260504T18Z_MSC_RDPS_VerticalVelocity_IsbL-0850_RLatLon0.09_PT072H.grib2 2026-05-04 21:02 832K
20260504T18Z_MSC_RDPS_VerticalWindShear_EtaL-6500_RLatLon0.09_PT072H.grib2 2026-05-04 21:02 1.2M
20260504T18Z_MSC_RDPS_WindChill_Sfc_RLatLon0.09_PT072H.grib2 2026-05-04 21:02 1.2M
20260504T18Z_MSC_RDPS_WindDir_AGL-10m_RLatLon0.09_PT072H.grib2 2026-05-04 21:02 1.0M
20260504T18Z_MSC_RDPS_WindDir_AGL-120m_RLatLon0.09_PT072H.grib2 2026-05-04 21:02 632K
20260504T18Z_MSC_RDPS_WindDir_AGL-40m_RLatLon0.09_PT072H.grib2 2026-05-04 21:02 654K
20260504T18Z_MSC_RDPS_WindDir_AGL-80m_RLatLon0.09_PT072H.grib2 2026-05-04 21:02 641K
20260504T18Z_MSC_RDPS_WindDir_IsbL-0001_RLatLon0.09_PT072H.grib2 2026-05-04 21:02 292K
20260504T18Z_MSC_RDPS_WindDir_IsbL-0005_RLatLon0.09_PT072H.grib2 2026-05-04 21:02 368K
20260504T18Z_MSC_RDPS_WindDir_IsbL-0010_RLatLon0.09_PT072H.grib2 2026-05-04 21:02 381K
20260504T18Z_MSC_RDPS_WindDir_IsbL-0020_RLatLon0.09_PT072H.grib2 2026-05-04 21:02 416K
20260504T18Z_MSC_RDPS_WindDir_IsbL-0030_RLatLon0.09_PT072H.grib2 2026-05-04 21:02 414K
20260504T18Z_MSC_RDPS_WindDir_IsbL-0050_RLatLon0.09_PT072H.grib2 2026-05-04 21:02 436K
20260504T18Z_MSC_RDPS_WindDir_IsbL-0100_RLatLon0.09_PT072H.grib2 2026-05-04 21:02 417K
20260504T18Z_MSC_RDPS_WindDir_IsbL-0150_RLatLon0.09_PT072H.grib2 2026-05-04 21:02 420K
20260504T18Z_MSC_RDPS_WindDir_IsbL-0175_RLatLon0.09_PT072H.grib2 2026-05-04 21:02 439K
20260504T18Z_MSC_RDPS_WindDir_IsbL-0200_RLatLon0.09_PT072H.grib2 2026-05-04 21:02 458K
20260504T18Z_MSC_RDPS_WindDir_IsbL-0225_RLatLon0.09_PT072H.grib2 2026-05-04 21:02 462K
20260504T18Z_MSC_RDPS_WindDir_IsbL-0250_RLatLon0.09_PT072H.grib2 2026-05-04 21:02 458K
20260504T18Z_MSC_RDPS_WindDir_IsbL-0275_RLatLon0.09_PT072H.grib2 2026-05-04 21:02 473K
20260504T18Z_MSC_RDPS_WindDir_IsbL-0300_RLatLon0.09_PT072H.grib2 2026-05-04 21:02 469K
20260504T18Z_MSC_RDPS_WindDir_IsbL-0350_RLatLon0.09_PT072H.grib2 2026-05-04 21:02 493K
20260504T18Z_MSC_RDPS_WindDir_IsbL-0400_RLatLon0.09_PT072H.grib2 2026-05-04 21:02 506K
20260504T18Z_MSC_RDPS_WindDir_IsbL-0450_RLatLon0.09_PT072H.grib2 2026-05-04 21:02 527K
20260504T18Z_MSC_RDPS_WindDir_IsbL-0500_RLatLon0.09_PT072H.grib2 2026-05-04 21:02 543K
20260504T18Z_MSC_RDPS_WindDir_IsbL-0550_RLatLon0.09_PT072H.grib2 2026-05-04 21:02 556K
20260504T18Z_MSC_RDPS_WindDir_IsbL-0600_RLatLon0.09_PT072H.grib2 2026-05-04 21:02 583K
20260504T18Z_MSC_RDPS_WindDir_IsbL-0650_RLatLon0.09_PT072H.grib2 2026-05-04 21:02 627K
20260504T18Z_MSC_RDPS_WindDir_IsbL-0700_RLatLon0.09_PT072H.grib2 2026-05-04 21:02 676K
20260504T18Z_MSC_RDPS_WindDir_IsbL-0750_RLatLon0.09_PT072H.grib2 2026-05-04 21:02 730K
20260504T18Z_MSC_RDPS_WindDir_IsbL-0800_RLatLon0.09_PT072H.grib2 2026-05-04 21:02 808K
20260504T18Z_MSC_RDPS_WindDir_IsbL-0850_RLatLon0.09_PT072H.grib2 2026-05-04 21:02 885K
20260504T18Z_MSC_RDPS_WindDir_IsbL-0875_RLatLon0.09_PT072H.grib2 2026-05-04 21:02 911K
20260504T18Z_MSC_RDPS_WindDir_IsbL-0900_RLatLon0.09_PT072H.grib2 2026-05-04 21:02 927K
20260504T18Z_MSC_RDPS_WindDir_IsbL-0925_RLatLon0.09_PT072H.grib2 2026-05-04 21:02 938K
20260504T18Z_MSC_RDPS_WindDir_IsbL-0950_RLatLon0.09_PT072H.grib2 2026-05-04 21:02 937K
20260504T18Z_MSC_RDPS_WindDir_IsbL-0970_RLatLon0.09_PT072H.grib2 2026-05-04 21:02 940K
20260504T18Z_MSC_RDPS_WindDir_IsbL-0985_RLatLon0.09_PT072H.grib2 2026-05-04 21:02 949K
20260504T18Z_MSC_RDPS_WindDir_IsbL-1000_RLatLon0.09_PT072H.grib2 2026-05-04 21:02 963K
20260504T18Z_MSC_RDPS_WindDir_IsbL-1015_RLatLon0.09_PT072H.grib2 2026-05-04 21:02 1.0M
20260504T18Z_MSC_RDPS_WindGust-Max_AGL-10m_RLatLon0.09_PT072H.grib2 2026-05-04 21:02 1.0M
20260504T18Z_MSC_RDPS_WindGust-Min_AGL-10m_RLatLon0.09_PT072H.grib2 2026-05-04 21:02 971K
20260504T18Z_MSC_RDPS_WindGust_AGL-10m_RLatLon0.09_PT072H.grib2 2026-05-04 21:02 1.0M
20260504T18Z_MSC_RDPS_WindSpeed_AGL-10m_RLatLon0.09_PT072H.grib2 2026-05-04 21:02 843K
20260504T18Z_MSC_RDPS_WindSpeed_AGL-120m_RLatLon0.09_PT072H.grib2 2026-05-04 21:02 537K
20260504T18Z_MSC_RDPS_WindSpeed_AGL-40m_RLatLon0.09_PT072H.grib2 2026-05-04 21:02 670K
20260504T18Z_MSC_RDPS_WindSpeed_AGL-80m_RLatLon0.09_PT072H.grib2 2026-05-04 21:02 667K
20260504T18Z_MSC_RDPS_WindSpeed_IsbL-0001_RLatLon0.09_PT072H.grib2 2026-05-04 21:02 339K
20260504T18Z_MSC_RDPS_WindSpeed_IsbL-0005_RLatLon0.09_PT072H.grib2 2026-05-04 21:02 294K
20260504T18Z_MSC_RDPS_WindSpeed_IsbL-0010_RLatLon0.09_PT072H.grib2 2026-05-04 21:02 399K
20260504T18Z_MSC_RDPS_WindSpeed_IsbL-0020_RLatLon0.09_PT072H.grib2 2026-05-04 21:02 423K
20260504T18Z_MSC_RDPS_WindSpeed_IsbL-0030_RLatLon0.09_PT072H.grib2 2026-05-04 21:02 318K
20260504T18Z_MSC_RDPS_WindSpeed_IsbL-0050_RLatLon0.09_PT072H.grib2 2026-05-04 21:02 344K
20260504T18Z_MSC_RDPS_WindSpeed_IsbL-0100_RLatLon0.09_PT072H.grib2 2026-05-04 21:02 427K
20260504T18Z_MSC_RDPS_WindSpeed_IsbL-0150_RLatLon0.09_PT072H.grib2 2026-05-04 21:02 394K
20260504T18Z_MSC_RDPS_WindSpeed_IsbL-0175_RLatLon0.09_PT072H.grib2 2026-05-04 21:02 418K
20260504T18Z_MSC_RDPS_WindSpeed_IsbL-0200_RLatLon0.09_PT072H.grib2 2026-05-04 21:02 438K
20260504T18Z_MSC_RDPS_WindSpeed_IsbL-0225_RLatLon0.09_PT072H.grib2 2026-05-04 21:02 441K
20260504T18Z_MSC_RDPS_WindSpeed_IsbL-0250_RLatLon0.09_PT072H.grib2 2026-05-04 21:02 441K
20260504T18Z_MSC_RDPS_WindSpeed_IsbL-0275_RLatLon0.09_PT072H.grib2 2026-05-04 21:02 457K
20260504T18Z_MSC_RDPS_WindSpeed_IsbL-0300_RLatLon0.09_PT072H.grib2 2026-05-04 21:02 454K
20260504T18Z_MSC_RDPS_WindSpeed_IsbL-0350_RLatLon0.09_PT072H.grib2 2026-05-04 21:02 471K
20260504T18Z_MSC_RDPS_WindSpeed_IsbL-0400_RLatLon0.09_PT072H.grib2 2026-05-04 21:02 454K
20260504T18Z_MSC_RDPS_WindSpeed_IsbL-0450_RLatLon0.09_PT072H.grib2 2026-05-04 21:02 453K
20260504T18Z_MSC_RDPS_WindSpeed_IsbL-0500_RLatLon0.09_PT072H.grib2 2026-05-04 21:02 570K
20260504T18Z_MSC_RDPS_WindSpeed_IsbL-0550_RLatLon0.09_PT072H.grib2 2026-05-04 21:02 572K
20260504T18Z_MSC_RDPS_WindSpeed_IsbL-0600_RLatLon0.09_PT072H.grib2 2026-05-04 21:02 625K
20260504T18Z_MSC_RDPS_WindSpeed_IsbL-0650_RLatLon0.09_PT072H.grib2 2026-05-04 21:02 647K
20260504T18Z_MSC_RDPS_WindSpeed_IsbL-0700_RLatLon0.09_PT072H.grib2 2026-05-04 21:02 673K
20260504T18Z_MSC_RDPS_WindSpeed_IsbL-0750_RLatLon0.09_PT072H.grib2 2026-05-04 21:02 707K
20260504T18Z_MSC_RDPS_WindSpeed_IsbL-0800_RLatLon0.09_PT072H.grib2 2026-05-04 21:02 759K
20260504T18Z_MSC_RDPS_WindSpeed_IsbL-0850_RLatLon0.09_PT072H.grib2 2026-05-04 21:02 821K
20260504T18Z_MSC_RDPS_WindSpeed_IsbL-0875_RLatLon0.09_PT072H.grib2 2026-05-04 21:02 841K
20260504T18Z_MSC_RDPS_WindSpeed_IsbL-0900_RLatLon0.09_PT072H.grib2 2026-05-04 21:02 857K
20260504T18Z_MSC_RDPS_WindSpeed_IsbL-0925_RLatLon0.09_PT072H.grib2 2026-05-04 21:02 866K
20260504T18Z_MSC_RDPS_WindSpeed_IsbL-0950_RLatLon0.09_PT072H.grib2 2026-05-04 21:02 862K
20260504T18Z_MSC_RDPS_WindSpeed_IsbL-0970_RLatLon0.09_PT072H.grib2 2026-05-04 21:02 860K
20260504T18Z_MSC_RDPS_WindSpeed_IsbL-0985_RLatLon0.09_PT072H.grib2 2026-05-04 21:02 856K
20260504T18Z_MSC_RDPS_WindSpeed_IsbL-1000_RLatLon0.09_PT072H.grib2 2026-05-04 21:02 852K
20260504T18Z_MSC_RDPS_WindSpeed_IsbL-1015_RLatLon0.09_PT072H.grib2 2026-05-04 21:02 843K
20260504T18Z_MSC_RDPS_WindU_AGL-10m_RLatLon0.09_PT072H.grib2 2026-05-04 21:02 438K
20260504T18Z_MSC_RDPS_WindU_AGL-120m_RLatLon0.09_PT072H.grib2 2026-05-04 21:02 537K
20260504T18Z_MSC_RDPS_WindU_AGL-40m_RLatLon0.09_PT072H.grib2 2026-05-04 21:02 541K
20260504T18Z_MSC_RDPS_WindU_AGL-80m_RLatLon0.09_PT072H.grib2 2026-05-04 21:02 539K
20260504T18Z_MSC_RDPS_WindU_IsbL-0001_RLatLon0.09_PT072H.grib2 2026-05-04 21:02 248K
20260504T18Z_MSC_RDPS_WindU_IsbL-0005_RLatLon0.09_PT072H.grib2 2026-05-04 21:02 329K
20260504T18Z_MSC_RDPS_WindU_IsbL-0010_RLatLon0.09_PT072H.grib2 2026-05-04 21:02 298K
20260504T18Z_MSC_RDPS_WindU_IsbL-0020_RLatLon0.09_PT072H.grib2 2026-05-04 21:02 318K
20260504T18Z_MSC_RDPS_WindU_IsbL-0030_RLatLon0.09_PT072H.grib2 2026-05-04 21:02 352K
20260504T18Z_MSC_RDPS_WindU_IsbL-0050_RLatLon0.09_PT072H.grib2 2026-05-04 21:02 375K
20260504T18Z_MSC_RDPS_WindU_IsbL-0100_RLatLon0.09_PT072H.grib2 2026-05-04 21:02 327K
20260504T18Z_MSC_RDPS_WindU_IsbL-0150_RLatLon0.09_PT072H.grib2 2026-05-04 21:02 389K
20260504T18Z_MSC_RDPS_WindU_IsbL-0175_RLatLon0.09_PT072H.grib2 2026-05-04 21:02 412K
20260504T18Z_MSC_RDPS_WindU_IsbL-0200_RLatLon0.09_PT072H.grib2 2026-05-04 21:02 431K
20260504T18Z_MSC_RDPS_WindU_IsbL-0225_RLatLon0.09_PT072H.grib2 2026-05-04 21:02 337K
20260504T18Z_MSC_RDPS_WindU_IsbL-0250_RLatLon0.09_PT072H.grib2 2026-05-04 21:02 335K
20260504T18Z_MSC_RDPS_WindU_IsbL-0275_RLatLon0.09_PT072H.grib2 2026-05-04 21:02 348K
20260504T18Z_MSC_RDPS_WindU_IsbL-0300_RLatLon0.09_PT072H.grib2 2026-05-04 21:02 345K
20260504T18Z_MSC_RDPS_WindU_IsbL-0350_RLatLon0.09_PT072H.grib2 2026-05-04 21:02 355K
20260504T18Z_MSC_RDPS_WindU_IsbL-0400_RLatLon0.09_PT072H.grib2 2026-05-04 21:02 456K
20260504T18Z_MSC_RDPS_WindU_IsbL-0450_RLatLon0.09_PT072H.grib2 2026-05-04 21:02 457K
20260504T18Z_MSC_RDPS_WindU_IsbL-0500_RLatLon0.09_PT072H.grib2 2026-05-04 21:02 458K
20260504T18Z_MSC_RDPS_WindU_IsbL-0550_RLatLon0.09_PT072H.grib2 2026-05-04 21:02 461K
20260504T18Z_MSC_RDPS_WindU_IsbL-0600_RLatLon0.09_PT072H.grib2 2026-05-04 21:02 471K
20260504T18Z_MSC_RDPS_WindU_IsbL-0650_RLatLon0.09_PT072H.grib2 2026-05-04 21:02 473K
20260504T18Z_MSC_RDPS_WindU_IsbL-0700_RLatLon0.09_PT072H.grib2 2026-05-04 21:02 498K
20260504T18Z_MSC_RDPS_WindU_IsbL-0750_RLatLon0.09_PT072H.grib2 2026-05-04 21:02 528K
20260504T18Z_MSC_RDPS_WindU_IsbL-0800_RLatLon0.09_PT072H.grib2 2026-05-04 21:02 574K
20260504T18Z_MSC_RDPS_WindU_IsbL-0850_RLatLon0.09_PT072H.grib2 2026-05-04 21:02 627K
20260504T18Z_MSC_RDPS_WindU_IsbL-0875_RLatLon0.09_PT072H.grib2 2026-05-04 21:02 644K
20260504T18Z_MSC_RDPS_WindU_IsbL-0900_RLatLon0.09_PT072H.grib2 2026-05-04 21:02 657K
20260504T18Z_MSC_RDPS_WindU_IsbL-0925_RLatLon0.09_PT072H.grib2 2026-05-04 21:02 664K
20260504T18Z_MSC_RDPS_WindU_IsbL-0950_RLatLon0.09_PT072H.grib2 2026-05-04 21:02 660K
20260504T18Z_MSC_RDPS_WindU_IsbL-0970_RLatLon0.09_PT072H.grib2 2026-05-04 21:02 798K
20260504T18Z_MSC_RDPS_WindU_IsbL-0985_RLatLon0.09_PT072H.grib2 2026-05-04 21:02 797K
20260504T18Z_MSC_RDPS_WindU_IsbL-1000_RLatLon0.09_PT072H.grib2 2026-05-04 21:02 793K
20260504T18Z_MSC_RDPS_WindU_IsbL-1015_RLatLon0.09_PT072H.grib2 2026-05-04 21:02 835K
20260504T18Z_MSC_RDPS_WindV_AGL-10m_RLatLon0.09_PT072H.grib2 2026-05-04 21:02 433K
20260504T18Z_MSC_RDPS_WindV_AGL-120m_RLatLon0.09_PT072H.grib2 2026-05-04 21:02 534K
20260504T18Z_MSC_RDPS_WindV_AGL-40m_RLatLon0.09_PT072H.grib2 2026-05-04 21:02 535K
20260504T18Z_MSC_RDPS_WindV_AGL-80m_RLatLon0.09_PT072H.grib2 2026-05-04 21:02 534K
20260504T18Z_MSC_RDPS_WindV_IsbL-0001_RLatLon0.09_PT072H.grib2 2026-05-04 21:02 250K
20260504T18Z_MSC_RDPS_WindV_IsbL-0005_RLatLon0.09_PT072H.grib2 2026-05-04 21:02 286K
20260504T18Z_MSC_RDPS_WindV_IsbL-0010_RLatLon0.09_PT072H.grib2 2026-05-04 21:02 300K
20260504T18Z_MSC_RDPS_WindV_IsbL-0020_RLatLon0.09_PT072H.grib2 2026-05-04 21:02 320K
20260504T18Z_MSC_RDPS_WindV_IsbL-0030_RLatLon0.09_PT072H.grib2 2026-05-04 21:02 314K
20260504T18Z_MSC_RDPS_WindV_IsbL-0050_RLatLon0.09_PT072H.grib2 2026-05-04 21:02 339K
20260504T18Z_MSC_RDPS_WindV_IsbL-0100_RLatLon0.09_PT072H.grib2 2026-05-04 21:02 417K
20260504T18Z_MSC_RDPS_WindV_IsbL-0150_RLatLon0.09_PT072H.grib2 2026-05-04 21:02 387K
20260504T18Z_MSC_RDPS_WindV_IsbL-0175_RLatLon0.09_PT072H.grib2 2026-05-04 21:02 411K
20260504T18Z_MSC_RDPS_WindV_IsbL-0200_RLatLon0.09_PT072H.grib2 2026-05-04 21:02 334K
20260504T18Z_MSC_RDPS_WindV_IsbL-0225_RLatLon0.09_PT072H.grib2 2026-05-04 21:02 336K
20260504T18Z_MSC_RDPS_WindV_IsbL-0250_RLatLon0.09_PT072H.grib2 2026-05-04 21:02 334K
20260504T18Z_MSC_RDPS_WindV_IsbL-0275_RLatLon0.09_PT072H.grib2 2026-05-04 21:02 347K
20260504T18Z_MSC_RDPS_WindV_IsbL-0300_RLatLon0.09_PT072H.grib2 2026-05-04 21:02 343K
20260504T18Z_MSC_RDPS_WindV_IsbL-0350_RLatLon0.09_PT072H.grib2 2026-05-04 21:02 354K
20260504T18Z_MSC_RDPS_WindV_IsbL-0400_RLatLon0.09_PT072H.grib2 2026-05-04 21:02 355K
20260504T18Z_MSC_RDPS_WindV_IsbL-0450_RLatLon0.09_PT072H.grib2 2026-05-04 21:02 456K
20260504T18Z_MSC_RDPS_WindV_IsbL-0500_RLatLon0.09_PT072H.grib2 2026-05-04 21:02 457K
20260504T18Z_MSC_RDPS_WindV_IsbL-0550_RLatLon0.09_PT072H.grib2 2026-05-04 21:02 457K
20260504T18Z_MSC_RDPS_WindV_IsbL-0600_RLatLon0.09_PT072H.grib2 2026-05-04 21:02 467K
20260504T18Z_MSC_RDPS_WindV_IsbL-0650_RLatLon0.09_PT072H.grib2 2026-05-04 21:02 486K
20260504T18Z_MSC_RDPS_WindV_IsbL-0700_RLatLon0.09_PT072H.grib2 2026-05-04 21:02 508K
20260504T18Z_MSC_RDPS_WindV_IsbL-0750_RLatLon0.09_PT072H.grib2 2026-05-04 21:02 522K
20260504T18Z_MSC_RDPS_WindV_IsbL-0800_RLatLon0.09_PT072H.grib2 2026-05-04 21:02 569K
20260504T18Z_MSC_RDPS_WindV_IsbL-0850_RLatLon0.09_PT072H.grib2 2026-05-04 21:02 623K
20260504T18Z_MSC_RDPS_WindV_IsbL-0875_RLatLon0.09_PT072H.grib2 2026-05-04 21:02 641K
20260504T18Z_MSC_RDPS_WindV_IsbL-0900_RLatLon0.09_PT072H.grib2 2026-05-04 21:02 654K
20260504T18Z_MSC_RDPS_WindV_IsbL-0925_RLatLon0.09_PT072H.grib2 2026-05-04 21:02 661K
20260504T18Z_MSC_RDPS_WindV_IsbL-0950_RLatLon0.09_PT072H.grib2 2026-05-04 21:02 799K
20260504T18Z_MSC_RDPS_WindV_IsbL-0970_RLatLon0.09_PT072H.grib2 2026-05-04 21:02 796K
20260504T18Z_MSC_RDPS_WindV_IsbL-0985_RLatLon0.09_PT072H.grib2 2026-05-04 21:02 792K
20260504T18Z_MSC_RDPS_WindV_IsbL-1000_RLatLon0.09_PT072H.grib2 2026-05-04 21:02 834K
20260504T18Z_MSC_RDPS_WindV_IsbL-1015_RLatLon0.09_PT072H.grib2 2026-05-04 21:02 827K